Location: Asheville, NC
(35.6000°N, 82.5500°W)
Time: 02:28:17
(UTC-04:00)

AO-85 - Pass Details

Date: 16 March 2018
Orbit: 497 x 788 km, 64.8° (Epoch: 14 June)

Event Time Altitude Azimuth Distance (km) Brightness Sun altitude
Rises 06:40:28 0° 344° (NNW) 3,127 ? -12.8°
Reaches altitude 10° 06:43:22 10° 1° (N) 2,249 ? -12.2°
Maximum altitude 06:47:13 21° 49° (NE) 1,685 ? -11.5°
Drops below altitude 10° 06:51:10 10° 97° (E) 2,325 ? -10.7°
Sets 06:54:13 0° 113° (ESE) 3,265 ? -10.0°
